Lid_Strength_Index
2 2 1 1 1 1 1 1 1 1 1 1 1 1 2 2 2 2 2 3 5 5
2 2 1 1 1 1 1 1 1 1 2 2 2 3 3 3 4 4 4 4 6 8
2 2 1 1 2 2 2 2 2 3 3 4 4 5 4 5 6 6 8 10 10 11
4 3 3 2 2 2 3 3 3 3 3 4 5 6 6 7 8 7 9 11 11 11
5 4 4 3 3 4 3 5 4 5 5 6 6 7 7 8 8 8 9 11 12 12
7 5 4 4 4 4 5 6 7 6 6 7 7 8 7 7 8 9 9 11 12 13
8 7 6 5 5 6 5 6 7 7 6 8 8 8 9 9 9 8 10 11 12 12
8 8 8 7 7 8 8 7 7 8 9 9 9 10 11 11 10 12 12 12 13 12
9 10 10 10 10 11 10 10 10 11 10 10 10 9 9 9 10 11 12 14 14 13
12 11 12 13 12 12 12 13 13 12 12 12 11 9 9 10 10 11 13 13 14 13
12 12 12 13 13 13 13 12 12 12 13 12 12 10 9 11 12 11 12 13 13 14
12 14 14 15 14 12 13 13 13 13 13 12 12 10 10 11 12 13 13 14 14 13
13 15 15 14 16 16 13 13 14 13 13 13 13 10 10 11 12 14 14 15 15 14
14 16 16 16 16 17 14 14 14 14 14 13 13 12 10 11 13 14 15 14 15 14